Change the Weather History Date:

Tuesday, January 24, 2012

  Actual Average Record
Temperature  
Mean Temperature 32 °F 27 °F  
Max Temperature 37 °F 35 °F 47 °F (2015)
Min Temperature 27 °F 19 °F -5 °F (2014)
Degree Days  
Heating Degree Days 33 38  
Month to date heating degree days 782 907  
Since 1 July heating degree days 2556 3046  
Cooling Degree Days 0 0  
Month to date cooling degree days 0 0  
Year to date cooling degree days 0 0  
Moisture  
Dew Point 24 °F    
Average Humidity 77    
Maximum Humidity 92    
Minimum Humidity 61    
Precipitation  
Precipitation 0.00 in 0.05 in 0.00 in (2015)
Month to date precipitation 1.12 1.44  
Year to date precipitation 1.12 1.44  
Sea Level Pressure  
Sea Level Pressure 30.27 in    
Wind  
Wind Speed 7 mph (WNW)    
Max Wind Speed 17 mph    
Max Gust Speed 22 mph    
Visibility 10 miles    
Events      
T = Trace of Precipitation, MM = Missing Value Source: NWS Daily Summary

Daily Weather History Graph

Daily Weather History Graph

Search for Another Location

Airport or City:

Trip Planner

Search our weather history database for the weather conditions in past years. The results will help you decide how hot, cold, wet, or windy it might be!

Date:

Astronomy

Jan. 24, 2012 Rise Set
Actual Time 7:10 AM CST 5:04 PM CST
Civil Twilight 6:41 AM CST 5:34 PM CST
Nautical Twilight 6:08 AM CST 6:06 PM CST
Astronomical Twilight 5:36 AM CST 6:38 PM CST
Moon 7:39 AM CST (1/24) 6:55 PM CST (1/24)
Length of Visible Light 10h 52m
Length of Day
9h 54m
New Moon, 2% of the Moon is Illuminated
Jan 24
New Moon
Jan 30
First Quarter
Feb 7
Full
Feb 14
Last Quarter
Feb 21
New

Hourly Weather History & Observations

Time (CST) Temp. Windchill Dew Point Humidity Pressure Visibility Wind Dir Wind Speed Gust Speed Precip Events Conditions
12:54 AM 33.1 °F 25.5 °F 24.1 °F 70% 30.06 in 10.0 mi WNW 9.2 mph 18.4 mph N/A   Overcast
1:54 AM 32.0 °F 24.2 °F 24.1 °F 73% 30.08 in 10.0 mi WNW 9.2 mph - N/A   Overcast
2:54 AM 32.0 °F 24.2 °F 24.1 °F 73% 30.10 in 10.0 mi WNW 9.2 mph - N/A   Overcast
3:54 AM 30.2 °F 21.3 °F 21.2 °F 69% 30.10 in 10.0 mi West 10.4 mph - N/A   Overcast
4:54 AM 30.9 °F 21.2 °F 21.9 °F 69% 30.14 in 10.0 mi WNW 12.7 mph - N/A   Overcast
5:54 AM 30.9 °F 21.7 °F 23.0 °F 72% 30.17 in 10.0 mi West 11.5 mph - N/A   Overcast
6:54 AM 30.9 °F 22.8 °F 21.9 °F 69% 30.20 in 10.0 mi WNW 9.2 mph - N/A   Overcast
7:54 AM 30.9 °F 22.2 °F 23.0 °F 72% 30.22 in 10.0 mi NW 10.4 mph - N/A   Overcast
8:54 AM 30.9 °F 23.5 °F 23.0 °F 72% 30.24 in 10.0 mi WNW 8.1 mph - N/A   Overcast
9:54 AM 30.9 °F 22.2 °F 23.0 °F 72% 30.27 in 10.0 mi NW 10.4 mph - N/A   Overcast
10:54 AM 32.0 °F 24.8 °F 21.9 °F 66% 30.30 in 10.0 mi WNW 8.1 mph - N/A   Overcast
11:54 AM 32.0 °F 25.6 °F 23.0 °F 69% 30.30 in 10.0 mi West 6.9 mph - N/A   Overcast
12:54 PM 33.1 °F 28.7 °F 21.9 °F 64% 30.31 in 10.0 mi West 4.6 mph - N/A   Overcast
1:54 PM 36.0 °F 29.6 °F 24.1 °F 62% 30.31 in 10.0 mi WNW 8.1 mph - N/A   Mostly Cloudy
2:45 PM 37.4 °F 30.8 °F 24.8 °F 60% 30.29 in 10.0 mi NW 9.2 mph - N/A   Scattered Clouds
2:54 PM 36.0 °F 31.1 °F 24.1 °F 62% 30.30 in 10.0 mi NNW 5.8 mph - N/A   Partly Cloudy
3:54 PM 35.1 °F 31.0 °F 25.0 °F 67% 30.30 in 10.0 mi NW 4.6 mph - N/A   Clear
4:50 PM 33.8 °F - 24.8 °F 70% 30.30 in 10.0 mi Calm Calm - N/A   Mostly Cloudy
4:54 PM 34.0 °F - 25.0 °F 70% 30.32 in 10.0 mi Calm Calm - N/A   Mostly Cloudy
5:04 PM 33.8 °F - 24.8 °F 70% 30.31 in 10.0 mi Calm Calm - N/A   Scattered Clouds
5:54 PM 32.0 °F - 26.1 °F 79% 30.35 in 10.0 mi Calm Calm - N/A   Scattered Clouds
6:04 PM 32.0 °F 28.7 °F 26.6 °F 80% 30.33 in 10.0 mi SSW 3.5 mph - N/A   Mostly Cloudy
6:29 PM 32.0 °F 28.7 °F 26.6 °F 80% 30.32 in 10.0 mi ESE 3.5 mph - N/A   Scattered Clouds
6:54 PM 28.9 °F - 25.0 °F 85% 30.37 in 10.0 mi Calm Calm - N/A   Scattered Clouds
7:06 PM 30.2 °F - 26.6 °F 86% 30.34 in 10.0 mi Calm Calm - N/A   Mostly Cloudy
7:54 PM 28.9 °F 22.8 °F 25.0 °F 85% 30.35 in 10.0 mi East 5.8 mph - N/A   Mostly Cloudy
8:10 PM 26.6 °F 20.0 °F 24.8 °F 93% 30.33 in 10.0 mi East 5.8 mph - N/A   Scattered Clouds
8:54 PM 28.9 °F - 27.0 °F 92% 30.36 in 10.0 mi Calm Calm - N/A   Clear
9:54 PM 28.0 °F 21.7 °F 25.0 °F 88% 30.37 in 10.0 mi SSE 5.8 mph - N/A   Clear
10:54 PM 26.6 °F 20.0 °F 23.0 °F 86% 30.34 in 9.0 mi SE 5.8 mph - N/A   Clear
11:54 PM 28.0 °F - 24.1 °F 85% 30.36 in 8.0 mi Calm Calm - N/A   Clear